Simultaneous Nadir Overpasses (SNOs) Predictions

Prediction of SNOs between NOAA-19 and METOP-C Satellite Orbit:

Table of predicted SNOs for the next 14.0 days since TLE Epoch: 3/29/2019
Index Date (NOAA-19) Time (NOAA-19) Lat,Lon (NOAA-19) SZA (NOAA-19 ) Date (METOP-C) Time (METOP-C) Lat,Lon (METOP-C) SZA (METOP-C ) Distance(km) Time Diff (sec)
1 04/04/2019 19:47:25 79.10,-102.12 73.56 04/04/2019 19:48:40 79.09,-102.25 73.56 2.92 75
2 04/04/2019 20:38:22 -79.10, 65.13 106.45 04/04/2019 20:39:20 -79.11, 65.23 106.43 2.34 58
3 04/04/2019 21:29:26 79.11,-127.65 73.54 04/04/2019 21:30:02 79.08,-127.68 73.52 3.10 36
4 04/04/2019 22:20:22 -79.08, 39.87 106.50 04/04/2019 22:20:42 -79.10, 39.80 106.47 3.08 20
5 04/04/2019 23:11:26 79.08,-152.91 73.49 04/04/2019 23:11:23 79.10,-152.86 73.52 2.87 3
6 04/05/2019 00:02:23 -79.08, 14.34 106.52 04/05/2019 00:02:04 -79.09, 14.37 106.52 1.07 19
7 04/05/2019 00:53:27 79.08,-178.43 73.47 04/05/2019 00:52:45 79.09,-178.30 73.48 2.97 42
8 04/05/2019 01:44:24 -79.08, -11.19 106.55 04/05/2019 01:43:26 -79.07, -11.06 106.56 2.71 58




NCC Satellite Simultaneous Nadir Overpasses (SNOs) Prediction Service
